Time,TemperatureF,DewpointF,PressureIn,WindDirection,WindDirectionDegrees,WindSpeedMPH,WindSpeedGustMPH,Humidity,HourlyPrecipIn,Conditions,Clouds,dailyrainin,SoftwareType,DateUTC
2013-06-27 00:02:00,75.7,75.0,29.75,SW,234,0.0,1.0,98,0.00,,,0.00,weatherlink.com 1.10,2013-06-27 05:02:00,
2013-06-27 00:17:00,75.8,75.0,29.76,SW,235,0.0,1.0,98,0.00,,,0.00,weatherlink.com 1.10,2013-06-27 05:17:00,
2013-06-27 00:32:00,75.6,75.0,29.76,SW,235,0.0,0.0,98,0.00,,,0.00,weatherlink.com 1.10,2013-06-27 05:32:00,
2013-06-27 00:47:00,75.6,75.0,29.76,SW,235,0.0,1.0,98,0.00,,,0.00,weatherlink.com 1.10,2013-06-27 05:47:00,
2013-06-27 01:02:00,75.5,75.0,29.76,SW,235,0.0,0.0,98,0.00,,,0.00,weatherlink.com 1.10,2013-06-27 06:02:00,
2013-06-27 01:17:00,75.2,75.0,29.76,SW,234,0.0,0.0,98,0.00,,,0.00,weatherlink.com 1.10,2013-06-27 06:17:00,
2013-06-27 01:32:00,75.1,75.0,29.76,SW,234,0.0,0.0,99,0.00,,,0.00,weatherlink.com 1.10,2013-06-27 06:32:00,
2013-06-27 01:47:00,74.8,74.0,29.76,SW,235,0.0,0.0,98,0.00,,,0.00,weatherlink.com 1.10,2013-06-27 06:47:00,
2013-06-27 02:02:00,74.2,74.0,29.76,SW,234,0.0,0.0,98,0.00,,,0.00,weatherlink.com 1.10,2013-06-27 07:02:00,
2013-06-27 02:17:00,73.4,73.0,29.76,SW,234,0.0,0.0,98,0.00,,,0.00,weatherlink.com 1.10,2013-06-27 07:17:00,
2013-06-27 02:32:00,72.9,72.0,29.76,SW,234,0.0,0.0,98,0.00,,,0.00,weatherlink.com 1.10,2013-06-27 07:32:00,
2013-06-27 02:47:00,72.9,72.0,29.76,SW,235,0.0,1.0,98,0.00,,,0.00,weatherlink.com 1.10,2013-06-27 07:47:00,
2013-06-27 03:02:00,72.7,72.0,29.76,SSE,148,0.0,1.0,99,0.00,,,0.00,weatherlink.com 1.10,2013-06-27 08:02:00,
2013-06-27 03:17:00,72.4,72.0,29.76,SSE,148,0.0,1.0,99,0.00,,,0.00,weatherlink.com 1.10,2013-06-27 08:17:00,
2013-06-27 03:32:00,72.7,72.0,29.76,NW,304,0.0,2.0,99,0.00,,,0.00,weatherlink.com 1.10,2013-06-27 08:32:00,
2013-06-27 03:47:00,72.6,72.0,29.77,North,358,0.0,1.0,99,0.00,,,0.00,weatherlink.com 1.10,2013-06-27 08:47:00,
2013-06-27 04:02:00,72.4,72.0,29.77,North,359,0.0,1.0,99,0.00,,,0.00,weatherlink.com 1.10,2013-06-27 09:02:00,
2013-06-27 04:17:00,72.3,72.0,29.77,North,359,0.0,1.0,99,0.00,,,0.00,weatherlink.com 1.10,2013-06-27 09:17:00,
2013-06-27 04:32:00,72.0,72.0,29.78,North,359,0.0,1.0,99,0.00,,,0.00,weatherlink.com 1.10,2013-06-27 09:32:00,
2013-06-27 04:47:00,71.8,72.0,29.79,North,359,0.0,1.0,99,0.00,,,0.00,weatherlink.com 1.10,2013-06-27 09:47:00,
2013-06-27 05:02:00,71.6,71.0,29.79,North,359,0.0,1.0,99,0.00,,,0.00,weatherlink.com 1.10,2013-06-27 10:02:00,
2013-06-27 05:17:00,71.6,71.0,29.80,WNW,300,0.0,2.0,99,0.00,,,0.00,weatherlink.com 1.10,2013-06-27 10:17:00,
2013-06-27 05:32:00,71.4,71.0,29.80,NNW,329,0.0,2.0,99,0.00,,,0.00,weatherlink.com 1.10,2013-06-27 10:32:00,
2013-06-27 05:48:00,71.2,71.0,29.80,WNW,293,0.0,1.0,99,0.00,,,0.00,weatherlink.com 1.10,2013-06-27 10:48:00,
2013-06-27 06:03:00,71.5,71.0,29.80,NW,316,0.0,2.0,99,0.00,,,0.00,weatherlink.com 1.10,2013-06-27 11:03:00,
2013-06-27 06:18:00,71.8,71.0,29.81,WNW,287,1.0,-999.0,98,-99.99,,,0.00,weatherlink.com 1.10,2013-06-27 11:18:00,
2013-06-27 06:33:00,72.6,72.0,29.80,WNW,285,0.0,2.0,97,0.00,,,0.00,weatherlink.com 1.10,2013-06-27 11:33:00,
2013-06-27 06:48:00,73.1,72.0,29.80,NW,321,0.0,3.0,95,0.00,,,0.00,weatherlink.com 1.10,2013-06-27 11:48:00,
2013-06-27 07:03:00,74.0,72.0,29.80,West,279,0.0,2.0,93,0.00,,,0.00,weatherlink.com 1.10,2013-06-27 12:03:00,
2013-06-27 07:18:00,74.3,72.0,29.81,NW,306,0.0,3.0,92,0.00,,,0.00,weatherlink.com 1.10,2013-06-27 12:18:00,
2013-06-27 07:33:00,74.7,72.0,29.81,WNW,290,0.0,3.0,90,0.00,,,0.00,weatherlink.com 1.10,2013-06-27 12:33:00,
2013-06-27 07:48:00,75.3,72.0,29.82,WNW,297,2.0,3.0,90,0.00,,,0.00,weatherlink.com 1.10,2013-06-27 12:48:00,
2013-06-27 08:03:00,76.4,73.0,29.82,WSW,256,0.0,3.0,89,0.00,,,0.00,weatherlink.com 1.10,2013-06-27 13:03:00,
2013-06-27 08:18:00,77.6,73.0,29.83,NW,323,1.0,6.0,84,0.00,,,0.00,weatherlink.com 1.10,2013-06-27 13:18:00,
2013-06-27 08:33:00,78.7,73.0,29.83,West,261,0.0,5.0,83,0.00,,,0.00,weatherlink.com 1.10,2013-06-27 13:33:00,
2013-06-27 08:48:00,79.7,73.0,29.82,WSW,257,1.0,6.0,81,0.00,,,0.00,weatherlink.com 1.10,2013-06-27 13:48:00,
2013-06-27 09:03:00,80.7,73.0,29.82,NNE,23,2.0,3.0,78,0.00,,,0.00,weatherlink.com 1.10,2013-06-27 14:03:00,
2013-06-27 09:18:00,81.9,73.0,29.82,WSW,249,1.0,4.0,75,0.00,,,0.00,weatherlink.com 1.10,2013-06-27 14:18:00,
2013-06-27 09:33:00,82.4,73.0,29.82,NW,326,1.0,5.0,74,0.00,,,0.00,weatherlink.com 1.10,2013-06-27 14:33:00,
2013-06-27 09:48:00,83.3,74.0,29.82,East,89,1.0,7.0,73,0.00,,,0.00,weatherlink.com 1.10,2013-06-27 14:48:00,
2013-06-27 10:03:00,84.2,73.0,29.82,ESE,106,1.0,6.0,68,0.00,,,0.00,weatherlink.com 1.10,2013-06-27 15:03:00,
2013-06-27 10:18:00,84.8,73.0,29.82,NW,321,2.0,6.0,67,0.00,,,0.00,weatherlink.com 1.10,2013-06-27 15:18:00,
2013-06-27 10:33:00,85.6,72.0,29.82,NE,51,2.0,5.0,63,0.00,,,0.00,weatherlink.com 1.10,2013-06-27 15:33:00,
2013-06-27 10:48:00,86.3,73.0,29.82,WNW,288,1.0,7.0,64,0.00,,,0.00,weatherlink.com 1.10,2013-06-27 15:48:00,
2013-06-27 11:03:00,87.1,73.0,29.83,WSW,255,2.0,7.0,64,0.00,,,0.00,weatherlink.com 1.10,2013-06-27 16:03:00,
2013-06-27 11:18:00,87.6,72.0,29.83,East,81,1.0,5.0,61,0.00,,,0.00,weatherlink.com 1.10,2013-06-27 16:18:00,
2013-06-27 11:33:00,87.2,70.0,29.83,NNE,29,5.0,7.0,57,0.00,,,0.00,weatherlink.com 1.10,2013-06-27 16:33:00,
2013-06-27 11:48:00,88.5,71.0,29.83,East,95,1.0,7.0,56,0.00,,,0.00,weatherlink.com 1.10,2013-06-27 16:48:00,
2013-06-27 12:03:00,89.0,70.0,29.82,West,276,1.0,8.0,54,0.00,,,0.00,weatherlink.com 1.10,2013-06-27 17:03:00,
2013-06-27 12:18:00,89.2,69.0,29.82,NNW,329,0.0,8.0,52,0.00,,,0.00,weatherlink.com 1.10,2013-06-27 17:18:00,
2013-06-27 12:34:00,90.4,68.0,29.82,West,280,1.0,7.0,48,0.00,,,0.00,weatherlink.com 1.10,2013-06-27 17:34:00,
2013-06-27 12:49:00,90.5,72.0,29.83,SSW,203,1.0,7.0,55,0.00,,,0.00,weatherlink.com 1.10,2013-06-27 17:49:00,
2013-06-27 13:04:00,91.3,70.0,29.83,SW,219,2.0,5.0,49,0.00,,,0.00,weatherlink.com 1.10,2013-06-27 18:04:00,
2013-06-27 13:19:00,92.4,69.0,29.83,WNW,299,2.0,7.0,46,0.00,,,0.00,weatherlink.com 1.10,2013-06-27 18:19:00,
2013-06-27 13:34:00,91.2,68.0,29.83,WNW,298,0.0,9.0,47,0.00,,,0.00,weatherlink.com 1.10,2013-06-27 18:34:00,
2013-06-27 13:49:00,93.0,71.0,29.82,WSW,248,2.0,5.0,48,0.00,,,0.00,weatherlink.com 1.10,2013-06-27 18:49:00,
2013-06-27 14:04:00,91.9,73.0,29.82,South,173,1.0,5.0,54,0.00,,,0.00,weatherlink.com 1.10,2013-06-27 19:04:00,
2013-06-27 14:19:00,89.7,72.0,29.82,WNW,291,0.0,5.0,57,0.00,,,0.00,weatherlink.com 1.10,2013-06-27 19:19:00,
2013-06-27 14:34:00,88.4,72.0,29.82,WSW,250,2.0,3.0,58,0.00,,,0.00,weatherlink.com 1.10,2013-06-27 19:34:00,
2013-06-27 14:49:00,86.6,72.0,29.82,West,269,1.0,4.0,62,0.00,,,0.00,weatherlink.com 1.10,2013-06-27 19:49:00,
2013-06-27 15:04:00,85.9,73.0,29.83,SE,145,1.0,4.0,66,0.00,,,0.00,weatherlink.com 1.10,2013-06-27 20:04:00,
2013-06-27 15:19:00,85.1,72.0,29.83,WNW,283,2.0,4.0,64,0.00,,,0.00,weatherlink.com 1.10,2013-06-27 20:19:00,
2013-06-27 15:34:00,84.8,70.0,29.83,WSW,252,1.0,6.0,62,0.00,,,0.00,weatherlink.com 1.10,2013-06-27 20:34:00,
2013-06-27 15:49:00,84.4,71.0,29.82,WNW,297,2.0,8.0,64,0.00,,,0.00,weatherlink.com 1.10,2013-06-27 20:49:00,
2013-06-27 16:04:00,83.4,71.0,29.82,ENE,75,5.0,6.0,66,0.00,,,0.00,weatherlink.com 1.10,2013-06-27 21:04:00,
2013-06-27 16:19:00,82.9,71.0,29.81,WNW,284,3.0,4.0,67,0.00,,,0.00,weatherlink.com 1.10,2013-06-27 21:19:00,
2013-06-27 16:34:00,82.5,71.0,29.80,North,8,0.0,5.0,69,0.00,,,0.00,weatherlink.com 1.10,2013-06-27 21:34:00,
2013-06-27 16:49:00,82.6,72.0,29.79,WNW,284,1.0,3.0,70,0.00,,,0.00,weatherlink.com 1.10,2013-06-27 21:49:00,
2013-06-27 17:04:00,81.7,72.0,29.79,West,278,0.0,2.0,73,0.00,,,0.00,weatherlink.com 1.10,2013-06-27 22:04:00,
2013-06-27 17:19:00,81.5,72.0,29.78,WSW,257,1.0,4.0,72,0.00,,,0.00,weatherlink.com 1.10,2013-06-27 22:19:00,
2013-06-27 17:34:00,81.5,72.0,29.77,West,270,0.0,3.0,73,0.00,,,0.00,weatherlink.com 1.10,2013-06-27 22:34:00,
2013-06-27 17:49:00,81.0,72.0,29.77,NW,326,2.0,4.0,73,0.00,,,0.00,weatherlink.com 1.10,2013-06-27 22:49:00,
2013-06-27 18:04:00,82.1,73.0,29.77,WSW,239,1.0,3.0,73,0.00,,,0.00,weatherlink.com 1.10,2013-06-27 23:04:00,
2013-06-27 18:34:00,84.4,72.0,29.76,ENE,65,1.0,6.0,67,0.00,,,0.00,weatherlink.com 1.10,2013-06-27 23:34:00,
2013-06-27 18:49:00,83.3,70.0,29.76,SE,125,1.0,6.0,65,0.00,,,0.00,weatherlink.com 1.10,2013-06-27 23:49:00,
2013-06-27 19:04:00,82.5,70.0,29.76,NW,325,1.0,4.0,66,0.00,,,0.00,weatherlink.com 1.10,2013-06-28 00:04:00,
2013-06-27 19:19:00,81.7,70.0,29.75,SW,228,2.0,4.0,67,0.00,,,0.00,weatherlink.com 1.10,2013-06-28 00:19:00,
2013-06-27 19:34:00,81.2,68.0,29.74,SSW,209,1.0,5.0,64,0.00,,,0.00,weatherlink.com 1.10,2013-06-28 00:34:00,
2013-06-27 19:49:00,80.7,67.0,29.74,SW,233,1.0,5.0,64,0.00,,,0.00,weatherlink.com 1.10,2013-06-28 00:49:00,
2013-06-27 20:04:00,79.5,68.0,29.74,WSW,249,1.0,3.0,67,0.00,,,0.00,weatherlink.com 1.10,2013-06-28 01:04:00,
2013-06-27 20:19:00,78.1,68.0,29.75,NNE,23,1.0,3.0,72,0.00,,,0.00,weatherlink.com 1.10,2013-06-28 01:19:00,
2013-06-27 20:34:00,77.1,68.0,29.75,NW,311,0.0,1.0,74,0.00,,,0.00,weatherlink.com 1.10,2013-06-28 01:34:00,
2013-06-27 20:49:00,76.2,68.0,29.74,WNW,294,0.0,3.0,76,0.00,,,0.00,weatherlink.com 1.10,2013-06-28 01:49:00,
2013-06-27 21:04:00,75.8,68.0,29.75,West,274,2.0,3.0,77,0.00,,,0.00,weatherlink.com 1.10,2013-06-28 02:04:00,
2013-06-27 21:19:00,75.8,68.0,29.75,WNW,301,1.0,4.0,76,0.00,,,0.00,weatherlink.com 1.10,2013-06-28 02:19:00,
2013-06-27 21:49:00,75.2,68.0,29.76,West,278,0.0,3.0,79,0.00,,,0.00,weatherlink.com 1.10,2013-06-28 02:49:00,
2013-06-27 22:04:00,74.7,68.0,29.77,NW,326,0.0,3.0,80,0.00,,,0.00,weatherlink.com 1.10,2013-06-28 03:04:00,
2013-06-27 22:19:00,74.4,69.0,29.77,West,269,1.0,2.0,82,0.00,,,0.00,weatherlink.com 1.10,2013-06-28 03:19:00,
2013-06-27 22:34:00,74.4,69.0,29.78,SW,229,1.0,3.0,82,0.00,,,0.00,weatherlink.com 1.10,2013-06-28 03:34:00,
2013-06-27 22:49:00,73.7,69.0,29.78,WSW,252,0.0,2.0,84,0.00,,,0.00,weatherlink.com 1.10,2013-06-28 03:49:00,
2013-06-27 23:04:00,73.3,69.0,29.79,WSW,255,0.0,1.0,85,0.00,,,0.00,weatherlink.com 1.10,2013-06-28 04:04:00,
2013-06-27 23:19:00,73.1,69.0,29.80,NE,45,1.0,2.0,87,0.00,,,0.00,weatherlink.com 1.10,2013-06-28 04:19:00,
2013-06-27 23:49:00,73.2,70.0,29.80,WSW,240,0.0,4.0,88,0.00,,,0.00,weatherlink.com 1.10,2013-06-28 04:49:00,